Цаленджиха

Грузия     42°36′35″N   42°04′13″E
темп.,
°C
ветер,
м/с
пор.,
м/с
влажн.,
%
обл.,
%
осадки,
мм/ч
давл.,
гПа
погр.,
м
17 мая, пн
пн1701:00+19ю284998 0.0 1007277
04:00+14зюз11832 0.0 100818
07:00+15ю01863 0.0 100750
10:00+20зюз226472 0.0 1008581
13:00+20зюз3365100 0.0 1009808
16:00+17юз2382100 0.6 1011274
19:00+15з2591100 0.7 1012408
22:00+15юз0196100 1.0 1014123
18 мая, вт
вт1801:00+14всв1198100 2.1 101377
04:00+14юв1197100 2.3 101261
07:00+14в1197100 0.3 101385
10:00+19юв127376 0.3 1013498
13:00+25юз11490 0.0 10121085
16:00+26з22430 0.0 10111400
19:00+24зюз01640 0.0 101011
22:00+17св22755 0.0 101132
19 мая, ср
ср1901:00+16всв235617 0.0 100951
04:00+18св2551100 0.0 100791
07:00+16ююз2673100 0.1 1012187
10:00+16ююв268996 0.5 1017695
13:00+15юз2697100 1.6 1018444
16:00+16юз239064 2.9 1019426
19:00+18юз118137 0.6 1019491
22:00+14св119337 0.7 101912
20 мая, чт
чт2001:00+12всв22960 0.0 101833
04:00+10всв229099 0.0 101648
07:00+11всв23710 0.0 101554
10:00+22в24390 0.0 1014306
13:00+29в24230 0.0 1012759
16:00+31вюв24240 0.0 1010892
19:00+26в26570 0.0 1009148
22:00+20в37463 0.0 1009140
21 мая, пт
пт2101:00+19в39370 0.0 1008188
04:00+19в39371 0.0 1007190
07:00+19в39501 0.0 1008197
10:00+28вюв38450 0.0 1008357
13:00+32ю46374 0.0 10091157
16:00+28зюз32520 0.0 1009378
19:00+23зюз23713 0.0 1009188
22:00+16зсз25896 0.0 1012175